Kenai, AK

12:10 PM AKST on December 12, 2017 (GMT -0900)
Kenai Municipal

Weather History for PAEN - October, 2012

Change the Weather History Date:

Thursday, October 18, 2012

  Actual Average Record
Temperature  
Mean Temperature 27 °F -  
Max Temperature 36 °F 41 °F 53 °F (1969)
Min Temperature 18 °F 25 °F -4 °F (1996)
Degree Days  
Heating Degree Days 38    
Moisture  
Dew Point 20 °F    
Average Humidity 80    
Maximum Humidity 96    
Minimum Humidity 48    
Precipitation  
Precipitation 0.00 in - - ()
Sea Level Pressure  
Sea Level Pressure 29.80 in    
Wind  
Wind Speed 2 mph (ESE)    
Max Wind Speed 6 mph    
Max Gust Speed -    
Visibility 10 miles    
Events      
Averages and records for this station are not official NWS values.
T = Trace of Precipitation, MM = Missing Value Source: NWS Daily Summary

Daily Weather History Graph

Daily Weather History Graph

Search for Another Location

Airport or City:

Trip Planner

Search our weather history database for the weather conditions in past years. The results will help you decide how hot, cold, wet, or windy it might be!

Date:

Astronomy

Oct. 18, 2012 Rise Set
Actual Time 8:55 AM AKDT 6:43 PM AKDT
Civil Twilight 8:11 AM AKDT 7:27 PM AKDT
Nautical Twilight 7:22 AM AKDT 8:16 PM AKDT
Astronomical Twilight 6:33 AM AKDT 9:05 PM AKDT
Moon 1:52 PM AKDT (10/18) 8:23 PM AKDT (10/18)
Length of Visible Light 11h 15m
Length of Day
9h 48m
Waxing Crescent, 15% of the Moon is Illuminated
Oct 18
Waxing Crescent
Oct 21
First Quarter
Oct 29
Full
Nov 6
Last Quarter
Nov 13
New

Hourly Weather History & Observations

Time (AKDT) Temp. Windchill Dew Point Humidity Pressure Visibility Wind Dir Wind Speed Gust Speed Precip Events Conditions
12:53 AM 27.0 °F 21.6 °F 23.0 °F 85% 29.72 in 10.0 mi NNW 4.6 mph - N/A   Scattered Clouds
1:53 AM 24.1 °F - 21.0 °F 88% 29.73 in 10.0 mi Calm Calm - N/A   Clear
2:53 AM 24.1 °F 19.7 °F 21.9 °F 91% 29.73 in 10.0 mi NNE 3.5 mph - N/A   Partly Cloudy
3:53 AM 23.0 °F - 21.0 °F 92% 29.74 in 10.0 mi Calm Calm - N/A   Clear
4:53 AM 21.9 °F - 19.9 °F 92% 29.75 in 10.0 mi Calm Calm - N/A   Clear
5:53 AM 21.9 °F - 21.0 °F 96% 29.75 in 10.0 mi Calm Calm - N/A   Clear
6:53 AM 19.0 °F - 18.0 °F 96% 29.77 in 10.0 mi Calm Calm - N/A   Clear
7:53 AM 18.0 °F - 16.0 °F 92% 29.78 in 10.0 mi Calm Calm - N/A   Clear
8:53 AM 19.0 °F - 17.1 °F 92% 29.80 in 10.0 mi Calm Calm - N/A   Clear
9:53 AM 19.0 °F 13.9 °F 16.0 °F 88% 29.81 in 10.0 mi NE 3.5 mph - N/A   Clear
10:53 AM 21.9 °F - 18.0 °F 85% 29.82 in 10.0 mi Calm Calm - N/A   Clear
11:53 AM 28.9 °F - 21.9 °F 75% 29.83 in 10.0 mi Calm Calm - N/A   Clear
12:53 PM 30.0 °F - 19.0 °F 64% 29.82 in 10.0 mi Calm Calm - N/A   Clear
1:53 PM 32.0 °F - 19.9 °F 61% 29.82 in 10.0 mi Calm Calm - N/A   Clear
2:53 PM 34.0 °F - 19.0 °F 54% 29.82 in 10.0 mi Calm Calm - N/A   Clear
3:53 PM 36.0 °F - 18.0 °F 48% 29.81 in 10.0 mi Calm Calm - N/A   Clear
4:53 PM 33.1 °F 27.7 °F 21.9 °F 64% 29.81 in 10.0 mi SSW 5.8 mph - N/A   Clear
5:53 PM 33.1 °F 30.0 °F 19.9 °F 59% 29.81 in 10.0 mi SSE 3.5 mph - N/A   Clear
6:53 PM 30.0 °F 26.5 °F 21.0 °F 69% 29.82 in 10.0 mi SE 3.5 mph - N/A   Clear
7:53 PM 27.0 °F - 21.9 °F 81% 29.83 in 10.0 mi Calm Calm - N/A   Clear
8:53 PM 27.0 °F 23.0 °F 21.0 °F 78% 29.83 in 10.0 mi South 3.5 mph - N/A   Clear
9:53 PM 24.1 °F - 21.0 °F 88% 29.84 in 10.0 mi Calm Calm - N/A   Clear
10:53 PM 21.9 °F - 19.9 °F 92% 29.84 in 10.0 mi Calm Calm - N/A   Clear
11:53 PM 19.9 °F 14.9 °F 18.0 °F 92% 29.85 in 10.0 mi ENE 3.5 mph - N/A   Clear